Overview Statistics Trail Chart Weather Telemetry Raw packets
 

This is the latest recevied weather packets stored in our database for station/object DO6GZ. If no packets are shown the sender has not sent any weather packets the latest 10 day(s).

<< 1 2 3 4 5 6 >>
Time Temp. Humidity Pressure Rain* Wind** Luminosity Snow
1788540360 17.22° C 10% - 4.32 mm - - -
1788539733 17.22° C 10% - 4.06 mm - - -
1788537850 17.22° C 10% - 1.27 mm - - -
1788537222 17.22° C 10% - 0.76 mm - - -
1788535967 17.22° C 10% - 3.3 mm - - -
1788534085 17.22° C 10% - 1.27 mm - - -
1788533457 17.22° C 10% - 0.25 mm - - -
1788532830 17.22° C 10% - 0.76 mm - - -
1788532202 17.22° C 10% - 0.51 mm - - -
1788531575 17.22° C 10% - 0.51 mm - - -
1788530947 17.22° C 10% - 0.51 mm - - -
1788530319 17.22° C 10% - 0.25 mm - - -
1788528437 23.33° C 10% - 0 mm - - -
1788525299 25° C 10% - 0 mm - - -
1788524672 25° C 10% - 0 mm - - -
1788523417 23.89° C 10% - 0 mm - - -
1788522162 23.33° C 10% - 0 mm - - -
1788520906 23.33° C 10% - 0 mm - - -
1788520279 23.33° C 10% - 0 mm - - -
1788518396 22.78° C 10% - 0 mm - - -
1788517769 23.33° C 10% - 0 mm - - -
1788516514 22.78° C 10% - 0 mm - - -
1788515886 22.78° C 10% - 0 mm - - -
1788514003 22.22° C 10% - 0 mm - - -
1788513376 22.22° C 10% - 0 mm - - -

* Rain latest hour (hover to see other rain measurements)
** Current wind speed in m/s (hover to see current wind gust speed)